Tracking 18840 objects as of 18-November-2017
HD Live streaming from Space Station
objects crossing your sky now

FENGYUN 1C DEB

Track FENGYUN 1C DEB now!
10-day predictions


NORAD ID: 31160
Int'l Code: 1999-025BHN
Perigee: 862.6 km
Apogee: 948.1 km
Inclination: 99.3 °
Period: 103.0 minutes
Semi major axis: 7276 km
RCS: 0.0015 m2 (small)
Launch date: May 10, 1999
Source: People's Republic of China (PRC)
Launch site: Taiyaun Space Center, China (TSC)

Note: This is SATELLITE DEBRIS
aabbcc
Your satellite tracking list
Your tracking list is empty




NASA's NSSDC Master Catalog

Two Line Element Set (TLE):
1 31160U 99025BHN 17321.15930886 -.00000039  00000-0  50463-5 0  9996
2 31160  99.3076 306.1001 0058744  41.8337 318.7294 13.98713014544624
Source of the keplerian elements: AFSPC